When you browse on this site, cookies collect data to enhance your experience and personalize the content and advertising you see.
Visit our Privacy Policy to learn more. By continuing to use the site, you agree to this use of cookies and data.
  • Em Portugal
  • Lista de países
  • Para 7 dias
  • Temperatura da água
  • Mapa do tempo
  • Widgets de tempo
  • user-avatar
    Iniciar Sessão

    Previsão horária em Perhlyay

    Hoje, 23 Setembro, Segunda-feira

    Tempo Temperatura Precipitação Vento Pressão Humidade
    00:00 -1°C° 0.5 mm 8 m/s 727 mmHg 96%
    01:00 -1°C° 0.3 mm 8 m/s 728 mmHg 95%
    02:00 -1°C° 0.3 mm 8 m/s 729 mmHg 94%
    03:00 -1°C° 0 mm 7 m/s 730 mmHg 95%
    04:00 -1°C° 0.1 mm 7 m/s 730 mmHg 93%
    05:00 0°C° 0.1 mm 7 m/s 731 mmHg 92%
    06:00 0°C° 0.1 mm 7 m/s 732 mmHg 91%
    07:00 0°C° 0.3 mm 7 m/s 733 mmHg 88%
    08:00 0°C° 0.3 mm 7 m/s 734 mmHg 86%
    09:00 0°C° 0 mm 7 m/s 735 mmHg 83%
    10:00 0°C° 0 mm 7 m/s 736 mmHg 80%
    11:00 +2°C° 0 mm 7 m/s 736 mmHg 77%
    12:00 +2°C° 0 mm 7 m/s 736 mmHg 75%
    13:00 +2°C° 0.1 mm 7 m/s 737 mmHg 76%
    14:00 +2°C° 0.1 mm 7 m/s 737 mmHg 77%
    15:00 +3°C° 0 mm 6 m/s 737 mmHg 76%
    16:00 +2°C° 0.3 mm 7 m/s 738 mmHg 81%
    17:00 +2°C° 0.3 mm 7 m/s 738 mmHg 87%
    18:00 0°C° 0.3 mm 7 m/s 738 mmHg 93%
    19:00 0°C° 0.1 mm 7 m/s 739 mmHg 91%
    20:00 +1°C° 0.1 mm 6 m/s 739 mmHg 89%
    21:00 +1°C° 0.1 mm 6 m/s 739 mmHg 88%
    22:00 +1°C° 0 mm 6 m/s 739 mmHg 88%
    23:00 0°C° 0 mm 5 m/s 740 mmHg 89%

    Amanhã, 24 Setembro, Terça-feira

    Tempo Temperatura Precipitação Vento Pressão Humidade
    00:00 0°C° 0 mm 5 m/s 740 mmHg 90%
    01:00 0°C° 0 mm 5 m/s 740 mmHg 89%
    02:00 0°C° 0 mm 5 m/s 741 mmHg 89%
    03:00 0°C° 0 mm 5 m/s 741 mmHg 89%
    04:00 0°C° 0 mm 5 m/s 742 mmHg 89%
    05:00 0°C° 0 mm 5 m/s 742 mmHg 90%
    06:00 -1°C° 0 mm 4 m/s 742 mmHg 91%
    07:00 0°C° 0 mm 4 m/s 742 mmHg 89%
    08:00 0°C° 0 mm 4 m/s 742 mmHg 88%
    09:00 0°C° 0 mm 4 m/s 743 mmHg 87%
    10:00 +1°C° 0 mm 4 m/s 743 mmHg 82%
    11:00 +3°C° 0 mm 4 m/s 742 mmHg 78%
    12:00 +4°C° 0 mm 4 m/s 742 mmHg 74%
    13:00 +5°C° 0.2 mm 4 m/s 742 mmHg 71%
    14:00 +5°C° 0.2 mm 4 m/s 743 mmHg 69%
    15:00 +6°C° 0.2 mm 4 m/s 743 mmHg 66%
    16:00 +5°C° 0.3 mm 3 m/s 743 mmHg 71%
    17:00 +4°C° 0.3 mm 3 m/s 743 mmHg 76%
    18:00 +3°C° 0.3 mm 3 m/s 742 mmHg 81%
    19:00 +3°C° 0 mm 3 m/s 743 mmHg 83%
    20:00 +3°C° 0 mm 2 m/s 743 mmHg 86%
    21:00 +3°C° 0 mm 2 m/s 743 mmHg 89%
    22:00 +2°C° 0 mm 2 m/s 743 mmHg 91%
    23:00 +2°C° 0 mm 2 m/s 743 mmHg 93%

    Depois de amanhã, 25 Setembro, Quarta-feira

    Tempo Temperatura Precipitação Vento Pressão Humidade
    00:00 +1°C° 0 mm 2 m/s 743 mmHg 95%
    01:00 +1°C° 0 mm 2 m/s 743 mmHg 94%
    02:00 +1°C° 0 mm 2 m/s 743 mmHg 94%
    03:00 +1°C° 0 mm 2 m/s 743 mmHg 93%
    04:00 -1°C° 0 mm 2 m/s 744 mmHg 93%
    05:00 -1°C° 0 mm 2 m/s 744 mmHg 94%
    06:00 -2°C° 0 mm 2 m/s 744 mmHg 94%
    07:00 +1°C° 0 mm 2 m/s 744 mmHg 88%
    08:00 +1°C° 0 mm 3 m/s 744 mmHg 83%
    09:00 +2°C° 0 mm 3 m/s 745 mmHg 77%
    10:00 +3°C° 0 mm 3 m/s 745 mmHg 73%
    11:00 +4°C° 0 mm 3 m/s 745 mmHg 68%
    12:00 +5°C° 0 mm 3 m/s 745 mmHg 64%
    13:00 +5°C° 0.1 mm 3 m/s 745 mmHg 63%
    14:00 +5°C° 0.1 mm 3 m/s 745 mmHg 62%
    15:00 +5°C° 0.1 mm 4 m/s 745 mmHg 61%
    16:00 +5°C° 0.1 mm 3 m/s 745 mmHg 66%
    17:00 +4°C° 0.1 mm 3 m/s 744 mmHg 70%
    18:00 +4°C° 0.1 mm 2 m/s 744 mmHg 75%
    19:00 +4°C° 0 mm 2 m/s 744 mmHg 77%
    20:00 +3°C° 0 mm 2 m/s 745 mmHg 79%
    21:00 +2°C° 0 mm 2 m/s 745 mmHg 81%
    22:00 +2°C° 0 mm 2 m/s 745 mmHg 81%
    23:00 +2°C° 0 mm 2 m/s 745 mmHg 82%

    26 Setembro, Quinta-feira

    Tempo Temperatura Precipitação Vento Pressão Humidade
    00:00 +2°C° 0 mm 2 m/s 745 mmHg 82%
    01:00 +2°C° 0 mm 2 m/s 745 mmHg 85%
    02:00 +1°C° 0 mm 3 m/s 745 mmHg 87%
    03:00 +1°C° 0 mm 3 m/s 745 mmHg 90%
    04:00 +2°C° 0 mm 2 m/s 745 mmHg 92%
    05:00 +2°C° 0 mm 2 m/s 745 mmHg 94%
    06:00 +1°C° 0 mm 2 m/s 745 mmHg 96%
    07:00 +3°C° 0 mm 2 m/s 745 mmHg 90%
    08:00 +4°C° 0 mm 2 m/s 745 mmHg 85%
    09:00 +4°C° 0 mm 3 m/s 745 mmHg 80%
    10:00 +5°C° 0 mm 3 m/s 745 mmHg 73%
    11:00 +7°C° 0 mm 3 m/s 745 mmHg 66%
    12:00 +7°C° 0 mm 4 m/s 745 mmHg 59%
    13:00 +7°C° 0 mm 4 m/s 745 mmHg 58%
    14:00 +7°C° 0 mm 4 m/s 745 mmHg 57%
    15:00 +7°C° 0 mm 4 m/s 745 mmHg 56%
    16:00 +6°C° 0 mm 4 m/s 744 mmHg 61%
    17:00 +5°C° 0 mm 3 m/s 744 mmHg 67%
    18:00 +5°C° 0 mm 2 m/s 744 mmHg 72%
    19:00 +5°C° 0 mm 2 m/s 744 mmHg 74%
    20:00 +4°C° 0 mm 2 m/s 744 mmHg 77%
    21:00 +3°C° 0 mm 2 m/s 744 mmHg 80%
    22:00 +3°C° 0 mm 2 m/s 744 mmHg 82%
    23:00 +3°C° 0 mm 2 m/s 744 mmHg 83%

    27 Setembro, Sexta-feira

    Tempo Temperatura Precipitação Vento Pressão Humidade
    00:00 +3°C° 0 mm 2 m/s 744 mmHg 85%
    01:00 +2°C° 0 mm 2 m/s 744 mmHg 87%
    02:00 +2°C° 0 mm 2 m/s 744 mmHg 89%
    03:00 +2°C° 0 mm 2 m/s 744 mmHg 91%
    04:00 +2°C° 0 mm 2 m/s 744 mmHg 91%
    05:00 +1°C° 0 mm 3 m/s 743 mmHg 92%
    06:00 +1°C° 0 mm 3 m/s 743 mmHg 92%
    07:00 +2°C° 0 mm 3 m/s 743 mmHg 87%
    08:00 +3°C° 0 mm 4 m/s 743 mmHg 82%
    09:00 +5°C° 0 mm 4 m/s 743 mmHg 77%
    10:00 +5°C° 0 mm 4 m/s 743 mmHg 73%
    11:00 +6°C° 0 mm 5 m/s 743 mmHg 68%
    12:00 +7°C° 0 mm 5 m/s 742 mmHg 63%
    13:00 +7°C° 0 mm 5 m/s 742 mmHg 65%
    14:00 +7°C° 0 mm 6 m/s 742 mmHg 67%
    15:00 +7°C° 0 mm 6 m/s 742 mmHg 69%
    16:00 +6°C° 0.1 mm 5 m/s 742 mmHg 74%
    17:00 +6°C° 0.1 mm 5 m/s 742 mmHg 80%
    18:00 +5°C° 0.1 mm 5 m/s 742 mmHg 85%
    19:00 +5°C° 0 mm 4 m/s 742 mmHg 87%
    20:00 +5°C° 0 mm 4 m/s 742 mmHg 89%
    21:00 +4°C° 0 mm 4 m/s 742 mmHg 91%
    22:00 +4°C° 0 mm 3 m/s 743 mmHg 92%
    23:00 +4°C° 0 mm 3 m/s 743 mmHg 93%

    28 Setembro, Sábado

    Tempo Temperatura Precipitação Vento Pressão Humidade
    00:00 +4°C° 0 mm 3 m/s 743 mmHg 94%
    01:00 +3°C° 0 mm 3 m/s 743 mmHg 95%
    02:00 +3°C° 0 mm 3 m/s 743 mmHg 95%
    03:00 +3°C° 0 mm 2 m/s 743 mmHg 96%
    04:00 +3°C° 0 mm 2 m/s 744 mmHg 96%
    05:00 +2°C° 0 mm 2 m/s 744 mmHg 96%
    06:00 +2°C° 0 mm 2 m/s 744 mmHg 97%
    07:00 +3°C° 0 mm 2 m/s 744 mmHg 92%
    08:00 +4°C° 0 mm 2 m/s 745 mmHg 88%
    09:00 +4°C° 0 mm 3 m/s 745 mmHg 84%
    10:00 +4°C° 0 mm 3 m/s 745 mmHg 78%
    11:00 +5°C° 0 mm 3 m/s 745 mmHg 73%
    12:00 +5°C° 0 mm 3 m/s 746 mmHg 67%
    13:00 +5°C° 0 mm 3 m/s 746 mmHg 67%
    14:00 +5°C° 0 mm 3 m/s 746 mmHg 66%
    15:00 +5°C° 0 mm 3 m/s 746 mmHg 65%
    16:00 +5°C° 0 mm 3 m/s 746 mmHg 67%
    17:00 +5°C° 0 mm 3 m/s 746 mmHg 68%
    18:00 +5°C° 0 mm 2 m/s 746 mmHg 70%
    19:00 +5°C° 0 mm 2 m/s 747 mmHg 71%
    20:00 +5°C° 0 mm 2 m/s 747 mmHg 71%
    21:00 +4°C° 0 mm 2 m/s 747 mmHg 72%
    22:00 +5°C° 0 mm 1 m/s 747 mmHg 74%
    23:00 +4°C° 0 mm 1 m/s 747 mmHg 77%
    Mostrar mais